Location: Bear Valley Meadows
(40.9851°N, 123.0761°W)
Time: 01:36:49
(UTC+00:00)

ISS - Visible Passes

Search period start: 18 July 2024 00:00
Search period end: 28 July 2024 00:00
Orbit: 409 x 424 km, 51.6° (Epoch: 17 July)

Date Brightness Start Highest point End Pass type
(mag) Time Alt. Az. Time Alt. Az. Time Alt. Az.
18 Jul -0.8 05:34:50 10° NNW 05:36:35 13° N 05:38:20 10° NE visible
18 Jul -1.5 07:11:12 10° NW 07:13:18 25° N 07:13:18 25° N visible
19 Jul -0.8 04:46:17 10° NNW 04:47:56 13° N 04:49:36 10° NNE visible
19 Jul -1.6 06:23:00 10° NNW 06:25:38 21° NNE 06:26:21 20° NE visible
20 Jul -1.2 05:34:44 10° NNW 05:37:01 17° NNE 05:39:18 10° ENE visible
20 Jul -1.3 07:10:58 10° NW 07:12:17 22° NW 07:12:17 22° NW visible
21 Jul -1.0 04:46:23 10° NNW 04:48:20 15° N 04:50:18 10° NE visible
21 Jul -2.5 06:22:37 10° NW 06:25:21 37° N 06:25:21 37° N visible
22 Jul -2.1 05:34:17 10° NW 05:37:11 27° NNE 05:38:26 21° ENE visible
22 Jul -0.8 07:10:51 10° WNW 07:11:19 13° WNW 07:11:19 13° WNW visible
23 Jul -1.6 04:45:56 10° NNW 04:48:31 20° NNE 04:51:06 10° ENE visible
23 Jul -2.4 06:22:15 10° NW 06:24:24 37° WNW 06:24:24 37° WNW visible
24 Jul -3.5 05:33:45 10° NW 05:37:02 59° NNE 05:37:31 51° ENE visible
25 Jul -2.7 04:45:17 10° NW 04:48:24 37° NNE 04:50:38 16° E visible
25 Jul -1.5 06:22:10 10° WNW 06:23:30 19° W 06:23:30 19° W visible
26 Jul -3.4 05:33:19 10° WNW 05:36:32 48° SW 05:36:39 48° SSW visible
27 Jul -3.9 04:44:38 10° NW 04:47:57 88° SSW 04:49:48 24° SE visible
